W1MWS-13 Weather Reports


time (UTC)temp
C
wind
direction
speed
KPH
gust
KPH
rain 1hr
cm
rain 24hr
cm
rain mn
cm
humidity
%
barometer
mb
20260507071841 11 229 4.8 4.8 0.00 0.48 0.03 99 1007.0
20260507071330 11 189 1.6 3.2 0.00 0.48 0.03 99 1007.0
20260507070330 11 191 3.2 3.2 0.00 0.48 0.03 99 1007.0
20260507065841 11 225 3.2 4.8 0.00 0.48 0.03 99 1007.0
20260507065319 11 203 3.2 4.8 0.00 0.48 0.03 99 1006.6
20260507064822 11 225 4.8 4.8 0.00 0.48 0.03 99 1006.6
20260507064319 11 230 4.8 6.4 0.00 0.48 0.03 99 1006.9
20260507063816 11 203 3.2 3.2 0.00 0.48 0.03 99 1006.9
20260507063319 11 203 6.4 6.4 0.00 0.48 0.03 99 1007.0
20260507062848 11 198 4.8 4.8 0.00 0.48 0.03 99 1007.0
20260507062320 11 165 6.4 6.4 0.00 0.48 0.03 99 1007.0
20260507061828 11 226 8.0 9.7 0.00 0.48 0.03 99 1006.7
20260507061339 11 248 6.4 8.0 0.00 0.48 0.03 99 1006.7
20260507060828 11 248 6.4 6.4 0.00 0.48 0.03 99 1006.7
20260507060319 11 237 6.4 8.0 0.00 0.48 0.03 99 1006.7
20260507055828 11 225 6.4 6.4 0.00 0.48 0.03 98 1006.7
20260507055319 11 242 6.4 8.0 0.00 0.48 0.03 98 1007.1
20260507054828 11 203 8.0 8.0 0.00 0.48 0.03 99 1007.1
20260507054319 11 248 6.4 8.0 0.00 0.48 0.03 99 1007.4
20260507053828 11 203 6.4 6.4 0.00 0.48 0.03 99 1007.4
20260507053319 11 204 6.4 8.0 0.00 0.48 0.03 99 1007.4
20260507052828 11 270 8.0 8.0 0.00 0.48 0.03 99 1007.1
20260507052319 12 203 9.7 14.5 0.00 0.48 0.03 99 1007.1
20260507051848 12 203 6.4 9.7 0.00 0.48 0.03 99 1007.3
20260507051319 12 180 8.0 9.7 0.00 0.48 0.03 99 1007.3
20260507050822 12 203 6.4 6.4 0.00 0.48 0.03 99 1007.0
20260507050319 12 214 9.7 9.7 0.00 0.48 0.03 99 1007.0
20260507045816 12 218 3.2 4.8 0.03 0.48 0.03 99 1007.0
20260507045319 12 203 1.6 4.8 0.08 0.48 0.03 99 1007.2
20260507044828 12 214 6.4 6.4 0.08 0.48 0.03 99 1007.2
20260507044319 12 203 3.2 4.8 0.08 0.48 0.03 99 1006.9
20260507043828 12 203 8.0 9.7 0.08 0.48 0.03 99 1006.9
20260507043319 12 203 9.7 11.3 0.08 0.48 0.03 99
20260507042828 12 225 6.4 8.0 0.08 0.48 0.03 99 1006.9
20260507042319 12 270 6.4 6.4 0.08 0.48 0.03 99 1006.9
20260507041829 12 225 4.8 4.8 0.08 0.48 0.03 99 1006.9
20260507041320 12 229 9.7 11.3 0.08 0.48 0.03 99 1006.9
20260507040829 12 180 9.7 11.3 0.08 0.48 0.03 99 1007.0
20260507040321 13 210 12.9 19.3 0.08 0.48 0.03 99 1007.0
20260507035823 13 191 8.0 8.0 0.05 0.46 0.46 99 1007.0
20260507035332 13 225 6.4 9.7 0.00 0.41 0.41 99 1006.8
20260507034823 14 270 12.9 12.9 0.00 0.41 0.41 98 1006.8
20260507034352 14 180 16.1 19.3 0.03 0.41 0.41 98 1006.4
20260507033823 15 203 9.7 12.9 0.03 0.41 0.41 99 1006.4
20260507033327 15 158 4.8 6.4 0.03 0.41 0.41 99 1006.4
20260507032823 15 190 4.8 6.4 0.03 0.41 0.41 99 1006.4
20260507032340 15 43 6.4 9.7 0.03 0.41 0.41 99 1006.4
20260507031818 15 180 8.0 11.3 0.03 0.41 0.41 99 1006.0
20260507031413 15 203 9.7 12.9 0.03 0.41 0.41 99 1006.0
20260507030824 15 225 11.3 12.9 0.03 0.41 0.41 99 1005.7
20260507030332 15 204 3.2 3.2 0.03 0.41 0.41 99 1005.7
20260507025823 15 146 4.8 6.4 0.03 0.41 0.41 99 1005.7
20260507025332 15 158 3.2 4.8 0.03 0.41 0.41 99 1005.9
20260507024823 15 158 9.7 9.7 0.03 0.41 0.41 99 1005.9
20260507024333 15 125 8.0 11.3 0.00 0.38 0.38 99 1005.8
20260507023824 15 158 6.4 8.0 0.00 0.38 0.38 99 1005.8
20260507023335 15 113 3.2 4.8 0.00 0.38 0.38 99 1005.8
20260507022838 15 113 4.8 4.8 0.00 0.38 0.38 99 1005.8
20260507022328 15 90 3.2 4.8 0.00 0.38 0.38 99 1005.8
20260507021819 15 180 4.8 6.4 0.00 0.38 0.38 99 1005.6
20260507021323 15 90 3.2 3.2 0.00 0.38 0.38 99 1005.6
20260507020831 15 68 1.6 1.6 0.00 0.38 0.38 99 1005.7
20260507020341 15 70 4.8 4.8 0.00 0.38 0.38 99 1005.7
20260507015851 15 113 3.2 4.8 0.00 0.38 0.38 99 1005.7
20260507015322 15 113 3.2 3.2 0.00 0.38 0.38 99 1005.7
20260507014824 15 113 6.4 6.4 0.00 0.38 0.38 99 1005.7
20260507014318 15 113 1.6 3.2 0.00 0.38 0.38 99 1005.8
20260507013846 15 0.0 0.0 0.00 0.38 0.38 99 1005.8
20260507013317 15 107 4.8 6.4 0.00 0.38 0.38 99 1005.7
20260507012827 15 125 4.8 6.4 0.00 0.38 0.38 99 1005.7
20260507012318 15 166 3.2 6.4 0.00 0.38 0.38 99 1005.7
20260507011827 15 84 4.8 6.4 0.00 0.38 0.38 99 1005.8
20260507011330 15 68 1.6 3.2 0.00 0.38 0.38 99 1005.8
20260507010822 15 45 6.4 8.0 0.00 0.38 0.38 99 1005.9
20260507010331 15 68 4.8 4.8 0.00 0.38 0.38 99 1005.9
20260507005822 15 113 4.8 4.8 0.00 0.38 0.38 99 1005.9
20260507005331 15 158 3.2 4.8 0.00 0.38 0.38 99 1005.8
20260507004822 15 88 6.4 6.4 0.00 0.38 0.38 99 1005.8
20260507004351 15 135 6.4 8.0 0.00 0.38 0.38 99 1005.7
20260507003822 15 32 8.0 9.7 0.00 0.38 0.38 99 1005.7
20260507003331 15 39 8.0 9.7 0.00 0.38 0.38 99 1005.7
20260507002817 15 37 8.0 11.3 0.00 0.38 0.38 99 1005.7
20260507002326 15 68 6.4 6.4 0.00 0.38 0.38 99 1005.7
20260507001817 15 45 4.8 4.8 0.00 0.38 0.38 99 1005.7
20260507001326 15 45 4.8 6.4 0.03 0.38 0.38 99 1005.7
20260507000815 15 225 6.4 8.0 0.03 0.38 0.38 99 1005.6
20260507000338 15 68 4.8 6.4 0.05 0.38 0.38 99 1005.6
20260506235816 15 56 4.8 6.4 0.08 0.38 0.38 99 1005.6
20260506235320 15 23 6.4 8.0 0.10 0.38 0.38 99 1005.5
20260506234826 15 338 6.4 6.4 0.10 0.38 0.38 99 1005.5
20260506234317 15 102 6.4 8.0 0.13 0.38 0.38 99 1005.5
20260506233826 15 113 6.4 8.0 0.13 0.38 0.38 99 1005.5
20260506233318 15 122 6.4 8.0 0.13 0.38 0.38 99 1005.5
20260506232820 15 68 6.4 6.4 0.15 0.38 0.38 99 1005.4
20260506232328 15 90 4.8 6.4 0.18 0.38 0.38 99 1005.4
20260506231819 15 52 6.4 9.7 0.18 0.38 0.38 99 1005.5
20260506231326 15 45 4.8 6.4 0.15 0.36 0.36 99 1005.5
20260506230830 15 68 6.4 8.0 0.15 0.36 0.36 99 1005.6
20260506230321 15 45 8.0 12.9 0.13 0.33 0.33 99 1005.6
20260506225830 15 113 6.4 9.7 0.10 0.30 0.30 99 1005.6
20260506225322 -17 82 4.8 4.8 0.08 0.28 0.28 1005.7
20260506224831 15 118 4.8 6.4 0.08 0.28 0.28 99 1005.7
20260506224322 15 101 4.8 4.8 0.05 0.25 0.25 99 1005.6
20260506223823 15 23 9.7 12.9 0.05 0.25 0.25 99 1005.6
20260506223320 15 98 6.4 8.0 0.05 0.25 0.25 99 1005.7
20260506222817 15 68 4.8 6.4 0.03 0.23 0.23 99 1005.7
20260506222341 15 68 8.0 9.7 0.00 0.20 0.20 99 1005.7
20260506221830 15 90 6.4 8.0 0.00 0.20 0.20 99 1005.8
20260506221321 15 45 8.0 8.0 0.00 0.20 0.20 99 1005.8
20260506220843 15 68 4.8 6.4 0.00 0.20 0.20 99 1005.9
20260506220352 15 31 6.4 8.0 0.00 0.20 0.20 99 1005.9
20260506215823 15 56 6.4 8.0 0.00 0.20 0.20 99 1005.9
20260506215333 15 81 6.4 8.0 0.03 0.20 0.20 99 1006.0
20260506214824 15 58 9.7 11.3 0.03 0.20 0.20 99 1006.0
20260506214333 15 8.0 8.0 0.03 0.20 0.20 99 1006.0
20260506213838 15 68 9.7 11.3 0.03 0.20 0.20 99 1006.0
20260506213327 15 68 6.4 9.7 0.05 0.20 0.20 99 1006.0
20260506212817 15 71 6.4 6.4 0.05 0.20 0.20 99 1006.1
20260506212325 15 68 11.3 12.9 0.05 0.20 0.20 99 1006.1
20260506211817 15 70 8.0 9.7 0.05 0.20 0.20 99 1006.3
20260506211326 15 92 6.4 9.7 0.08 0.20 0.20 99 1006.3
20260506210817 15 75 8.0 9.7 0.08 0.20 0.20 99 1006.4
20260506210326 15 77 8.0 9.7 0.08 0.20 0.20 99 1006.4
20260506205817 15 76 9.7 11.3 0.10 0.20 0.20 99 1006.4
20260506205321 16 68 6.4 8.0 0.08 0.18 0.18 99 1006.5
20260506204817 16 45 4.8 6.4 0.08 0.18 0.18 99 1006.5
20260506204320 16 8.0 8.0 0.08 0.18 0.18 99 1006.6
20260506203829 16 113 9.7 9.7 0.08 0.18 0.18 99 1006.6
20260506203340 16 194 8.0 9.7 0.05 0.15 0.15 99 1006.5
20260506202828 16 113 14.5 17.7 0.05 0.15 0.15 99 1006.5
20260506202320 16 82 12.9 16.1 0.08 0.15 0.15 99 1006.5
20260506201823 16 124 9.7 9.7 0.08 0.15 0.15 99 1006.2
20260506201328 16 55 6.4 8.0 0.08 0.13 0.13 99 1006.2
20260506200818 16 68 6.4 8.0 0.08 0.13 0.13 99 1006.4
20260506200327 16 90 11.3 12.9 0.08 0.13 0.13 99 1006.4
20260506195838 16 68 8.0 11.3 0.08 0.10 0.10 99 1006.4
20260506195325 17 45 9.7 9.7 0.08 0.10 0.10 99 1006.5
20260506194816 17 68 8.0 11.3 0.10 0.10 0.10 99 1006.5
20260506194325 17 8.0 9.7 0.10 0.10 0.10 99 1006.4
20260506193849 17 90 4.8 4.8 0.10 0.10 0.10 99 1006.4
20260506193319 17 71 4.8 6.4 0.10 0.10 0.10 99 1006.4
20260506192827 17 60 6.4 8.0 0.10 0.10 0.10 99 1006.4
20260506192319 17 90 3.2 4.8 0.08 0.08 0.08 98 1006.4
20260506191842 17 90 4.8 4.8 0.08 0.08 0.08 98 1006.3
20260506191319 17 113 11.3 11.3 0.05 0.05 0.05 98 1006.3
20260506190856 18 65 6.4 8.0 0.05 0.05 0.05 96 1006.4
20260506190319 18 58 4.8 6.4 0.05 0.05 0.05 94 1006.4
20260506185828 18 113 8.0 9.7 0.03 0.03 0.03 91 1006.4
20260506185339 18 207 6.4 8.0 0.03 0.03 0.03 88 1006.6
20260506184847 19 49 16.1 19.3 0.00 0.00 0.00 85 1006.6
20260506184319 20 119 8.0 8.0 0.00 0.00 0.00 83 1006.5
20260506183828 20 60 9.7 11.3 0.00 0.00 0.00 82 1006.5
20260506183318 20 113 11.3 19.3 0.00 0.00 0.00 81 1006.5
20260506182829 20 45 8.0 9.7 0.00 0.00 0.00 80 1006.6
20260506182319 21 180 8.0 8.0 0.00 0.00 0.00 78 1006.6
20260506181828 21 113 8.0 9.7 0.00 0.00 0.00 75 1006.4
20260506181318 21 89 9.7 11.3 0.00 0.00 0.00 73 1006.4
20260506180822 22 180 12.9 14.5 0.00 0.00 0.00 69 1006.6
20260506180422 22 68 4.8 6.4 0.00 0.00 0.00 68 1006.6
20260506175830 22 68 12.9 16.1 0.00 0.03 0.00 68 1006.6
20260506175341 22 0 9.7 11.3 0.00 0.03 0.00 67 1006.5
20260506174824 22 180 9.7 11.3 0.00 0.03 0.00 66 1006.5
20260506174321 22 103 11.3 11.3 0.00 0.03 0.00 65 1006.7
20260506173817 23 158 11.3 12.9 0.00 0.03 0.00 65 1006.7
20260506173412 23 85 16.1 17.7 0.00 0.03 0.00 64 1006.6
20260506172904 23 68 8.0 8.0 0.00 0.03 0.00 64 1006.6
20260506172333 23 144 6.4 9.7 0.00 0.03 0.00 64 1006.6
20260506171818 23 203 4.8 6.4 0.00 0.03 0.00 64 1006.7
20260506171325 23 135 8.0 9.7 0.00 0.03 0.00 65 1006.7
20260506170815 23 69 9.7 14.5 0.00 0.03 0.00 65 1006.7
20260506170324 23 45 12.9 16.1 0.00 0.03 0.00 65 1006.7
20260506165822 23 90 9.7 12.9 0.00 0.03 0.00 66 1006.7
20260506165351 23 68 8.0 9.7 0.00 0.03 0.00 68 1007.0
20260506164822 22 80 8.0 9.7 0.00 0.03 0.00 68 1007.0
20260506164331 22 74 9.7 11.3 0.00 0.03 0.00 68 1007.2
20260506163822 22 9.7 12.9 0.00 0.03 0.00 68 1007.2
20260506163331 22 69 9.7 12.9 0.00 0.03 0.00 68 1007.2
20260506162824 22 68 8.0 11.3 0.00 0.03 0.00 69 1007.3
20260506162332 22 126 9.7 11.3 0.00 0.03 0.00 69 1007.3
20260506161843 22 45 8.0 9.7 0.00 0.03 0.00 69 1007.6
20260506161326 22 80 11.3 12.9 0.00 0.03 0.00 69 1007.6
20260506160823 22 45 11.3 16.1 0.00 0.03 0.00 69 1007.9
20260506160320 22 68 16.1 20.9 0.00 0.03 0.00 69 1007.9
20260506155837 22 77 6.4 8.0 0.00 0.03 0.00 69 1007.9
20260506155325 22 135 6.4 6.4 0.00 0.03 0.00 69 1008.0
20260506154816 22 99 14.5 19.3 0.00 0.03 0.00 69 1008.0
20260506154325 22 33 8.0 9.7 0.00 0.03 0.00 70 1008.2
20260506153817 22 113 3.2 3.2 0.00 0.03 0.00 71 1008.2
20260506153325 22 110 9.7 9.7 0.00 0.03 0.00 71
20260506152816 22 45 4.8 4.8 0.00 0.03 0.00 71 1008.3
20260506152345 22 44 11.3 14.5 0.00 0.03 0.00 71 1008.3
20260506151815 22 354 9.7 11.3 0.00 0.03 0.00 71 1008.6
20260506151324 22 79 9.7 11.3 0.00 0.03 0.00 71 1008.6
20260506150815 22 337 6.4 8.0 0.00 0.03 0.00 72 1008.5
20260506150344 22 45 9.7 11.3 0.00 0.03 0.00 72 1008.5
20260506145815 22 61 11.3 14.5 0.00 0.03 0.00 71 1008.5
20260506145337 22 97 9.7 14.5 0.00 0.03 0.00 71 1008.7
20260506144815 21 64 8.0 11.3 0.00 0.03 0.00 73 1008.7
20260506144324 21 93 9.7 11.3 0.00 0.03 0.00 73 1008.6
20260506143815 21 78 11.3 14.5 0.00 0.03 0.00 73 1008.6
20260506143323 21 23 16.1 17.7 0.00 0.03 0.00 73 1008.5
20260506142830 22 45 11.3 12.9 0.00 0.03 0.00 72 1008.5
20260506142321 22 23 9.7 12.9 0.00 0.03 0.00 72 1008.5
20260506141830 22 113 11.3 16.1 0.00 0.03 0.00 72 1008.3
20260506141321 22 70 9.7 11.3 0.00 0.03 0.00 72 1008.3
20260506140830 22 90 6.4 8.0 0.00 0.03 0.00 73 1008.5
20260506140321 22 68 11.3 14.5 0.00 0.03 0.00 73 1008.5
20260506135830 22 116 6.4 9.7 0.00 0.03 0.00 74 1008.5
20260506135321 21 90 6.4 8.0 0.00 0.03 0.00 76 1008.7
20260506134831 20 38 8.0 8.0 0.00 0.03 0.00 77 1008.7
20260506134341 21 45 8.0 11.3 0.00 0.03 0.00 77 1009.0
20260506133830 20 68 6.4 8.0 0.00 0.03 0.00 78 1009.0
20260506133321 20 23 12.9 12.9 0.00 0.03 0.00 79 1009.0
20260506132824 20 45 11.3 14.5 0.00 0.03 0.00 79 1009.2
20260506132321 20 64 9.7 11.3 0.00 0.03 0.00 80 1009.2
20260506131839 20 28 8.0 9.7 0.00 0.03 0.00 81 1009.3
20260506131407 19 12 11.3 12.9 0.00 0.03 0.00 82 1009.3
20260506130836 19 100 9.7 9.7 0.00 0.03 0.00 82 1009.1
20260506130325 19 104 8.0 11.3 0.00 0.03 0.00 82 1009.1
20260506125837 18 88 9.7 12.9 0.00 0.03 0.00 82 1009.1
20260506125326 18 113 8.0 9.7 0.00 0.03 0.00 83 1009.3
20260506124817 18 55 8.0 9.7 0.00 0.03 0.00 84 1009.3
20260506124346 18 90 6.4 6.4 0.00 0.03 0.00 84 1009.1
20260506123816 18 79 9.7 11.3 0.00 0.03 0.00 84 1009.1
20260506123325 18 65 9.7 11.3 0.00 0.03 0.00 85 1009.1
20260506122816 18 45 9.7 11.3 0.00 0.03 0.00 85 1009.4
20260506122325 18 90 8.0 9.7 0.00 0.03 0.00 85 1009.4
20260506121837 17 45 8.0 9.7 0.00 0.03 0.00 85 1009.4
20260506121346 18 113 11.3 14.5 0.00 0.03 0.00 84 1009.4
20260506120830 18 23 8.0 8.0 0.00 0.03 0.00 84 1009.3
20260506120320 18 45 9.7 11.3 0.00 0.03 0.00 84 1009.3
20260506115829 18 113 6.4 8.0 0.00 0.03 0.00 85 1009.3
20260506115320 17 4.8 4.8 0.00 0.03 0.00 88 1009.5
20260506114823 17 4.8 8.0 0.00 0.03 0.00 88 1009.5
20260506114319 17 80 8.0 9.7 0.00 0.03 0.00 88 1009.5
20260506113826 17 113 8.0 11.3 0.00 0.03 0.00 88 1009.5
20260506113337 17 113 6.4 9.7 0.00 0.03 0.00 88 1009.5
20260506112825 17 146 8.0 11.3 0.00 0.03 0.00 88 1009.8
20260506112317 17 34 8.0 9.7 0.00 0.03 0.00 88 1009.8
20260506111820 16 54 6.4 6.4 0.00 0.03 0.00 88 1009.6
20260506111329 17 100 6.4 6.4 0.00 0.03 0.00 88 1009.6
20260506110820 17 68 8.0 14.5 0.00 0.03 0.00 88 1009.6
20260506110329 17 56 8.0 14.5 0.00 0.03 0.00 88 1009.6
20260506105820 16 45 12.9 16.1 0.00 0.03 0.00 89 1009.6
20260506105329 16 68 11.3 11.3 0.00 0.03 0.00 90 1009.7
20260506104820 16 23 8.0 8.0 0.00 0.03 0.00 90 1009.7
20260506104329 16 82 8.0 9.7 0.00 0.03 0.00 91 1009.7
20260506103821 16 68 4.8 6.4 0.00 0.03 0.00 91 1009.7
20260506103325 15 68 4.8 6.4 0.00 0.03 0.00 91 1009.7
20260506102826 15 203 4.8 4.8 0.00 0.03 0.00 91 1009.6
20260506102315 15 89 8.0 9.7 0.00 0.03 0.00 91 1009.6
20260506101825 15 146 8.0 8.0 0.00 0.03 0.00 91 1009.7
20260506101336 15 63 8.0 8.0 0.00 0.03 0.00 91 1009.7
20260506100819 15 73 6.4 8.0 0.00 0.03 0.00 91 1009.6
20260506100316 15 113 4.8 6.4 0.00 0.03 0.00 91 1009.6
20260506095825 15 45 6.4 8.0 0.00 0.03 0.00 91 1009.6
20260506095332 15 67 3.2 4.8 0.00 0.03 0.00 91 1009.6
20260506094823 15 113 6.4 8.0 0.00 0.03 0.00 91 1009.6
20260506094332 15 45 6.4 9.7 0.00 0.03 0.00 91 1009.4
20260506093824 15 51 6.4 6.4 0.00 0.03 0.00 91 1009.4
20260506093332 15 40 4.8 4.8 0.00 0.03 0.00 90 1009.4
20260506092843 15 45 4.8 6.4 0.00 0.03 0.00 90 1009.6
20260506092332 15 68 4.8 4.8 0.00 0.03 0.00 90 1009.6
20260506091837 15 225 8.0 11.3 0.00 0.03 0.00 90 1009.6
20260506091326 15 68 6.4 6.4 0.00 0.03 0.00 89 1009.6
20260506090816 15 115 6.4 9.7 0.00 0.03 0.00 89 1009.6
20260506090321 15 93 6.4 8.0 0.00 0.03 0.00 89 1009.6
20260506085825 15 59 6.4 8.0 0.00 0.03 0.00 89 1009.6
20260506085336 16 80 4.8 8.0 0.00 0.03 0.00 89 1009.7
20260506084818 16 100 3.2 4.8 0.00 0.03 0.00 88 1009.7
20260506084320 16 113 3.2 4.8 0.00 0.03 0.00 88 1009.7
20260506083821 16 293 3.2 4.8 0.00 0.03 0.00 88 1009.7
20260506083319 16 23 6.4 8.0 0.00 0.03 0.00 88 1009.7
20260506082833 16 34 6.4 6.4 0.00 0.03 0.00 87 1009.7
20260506082323 16 180 3.2 4.8 0.00 0.03 0.00 87 1009.7
20260506081853 16 45 9.7 12.9 0.00 0.03 0.00 87 1009.6
20260506081323 16 4.8 6.4 0.00 0.03 0.00 86 1009.6
20260506080820 16 23 4.8 6.4 0.00 0.03 0.00 86
20260506080322 16 68 6.4 6.4 0.00 0.03 0.00 86 1009.6
20260506073330 17 0 3.2 6.4 0.00 0.03 0.00 83 1009.5
20260506072821 17 68 6.4 9.7 0.00 0.03 0.00 83 1009.5
20260506072350 17 8.0 8.0 0.00 0.03 0.00 82 1009.5